sat.trackr.live / text

‹ back to catalog

ONEWEB-0445

NORAD 51639 · 2022-012T

PAYLOAD ACTIVE UNKNOWN

§ Identity

Operator
Country
UK
Launch date
2022-02-10
Launch site
FRGUI
Launch vehicle
Mass (kg)
RCS (m²)

Purposes: comms

External: N2YO · Heavens-Above · Gunter

§ Orbital elements

Epoch: 2026-09-19T06:22:29.809056Z

Period
109.89 min
Inclination
87.8908°
Eccentricity
0.0001625
Mean motion
13.10370452 rev/d
Perigee alt
1,220.5 km
Apogee alt
1,223.0 km
Semi-major
7,599.9 km
B*
-1.1698e-3
RAAN
17.5314°
Arg perigee
104.2514°
Mean anomaly
255.8793°
Rev number
22,166

§ Raw data

ONEWEB-04451 51639U 22012T   26262.26562279 -.00000396  00000+0 -11698-2 0  99942 51639  87.8908  17.5314 0001625 104.2514 255.8793 13.10370452221660

JSON: /api/v1/satellites/51639 · /tle

For live sub-satellite position, see the globe view (requires WebGL).

§ Visibility from observer

Set your observer location to see the next 7 days of passes ≥ 10°. The values pass through the URL so the page stays shareable.

No JS? Fill the form by hand. The geolocation button needs JavaScript.